| DS18B20 | SHTC3 | PZEM-004T | WiFi | ||||||||
|---|---|---|---|---|---|---|---|---|---|---|---|
| ID | Date d/m/Y & Time | data1 สูง | data2 ต่ำ | data3 นอก | temp pcb | hum pcb | Volt | Amp | Watt | rssi | Time |
| 16465 | 27/08/2026 12:41:30 | 34.4  | 32.4  | 35.0  | 35.3  | 60.5  | 232.0  | 0.04  | 4.5  | -84  | 12:41 |
| 16464 | 27/08/2026 12:36:47 | 34.4  | 32.3  | 35.5  | 35.0  | 60.5  | 231.8  | 0.03  | 4.5  | -83  | 12:36 |
| 16463 | 27/08/2026 12:32:01 | 34.3  | 32.2  | 35.2  | 35.1  | 60.6  | 232.7  | 0.04  | 4.5  | -83  | 12:32 |
| 16462 | 27/08/2026 12:27:03 | 34.2  | 32.2  | 35.2  | 34.8  | 60.7  | 230.7  | 0.04  | 4.5  | -84  | 12:27 |
| 16461 | 27/08/2026 12:22:19 | 34.2  | 32.1  | 35.1  | 35.0  | 60.7  | 232.8  | 0.04  | 4.6  | -84  | 12:22 |
| 16460 | 27/08/2026 12:17:35 | 34.1  | 32.1  | 35.2  | 34.8  | 60.7  | 232.9  | 0.03  | 4.5  | -84  | 12:17 |
| 16459 | 27/08/2026 12:12:52 | 34.0  | 32.0  | 35.0  | 34.7  | 60.8  | 232.2  | 0.04  | 4.5  | -84  | 12:12 |
| 16458 | 27/08/2026 12:08:06 | 33.9  | 32.0  | 34.7  | 34.7  | 60.6  | 233.1  | 0.04  | 4.5  | -84  | 12:08 |
| 16457 | 27/08/2026 12:03:22 | 33.9  | 31.9  | 34.7  | 34.6  | 60.7  | 233.1  | 0.04  | 4.5  | -83  | 12:03 |
| 16456 | 27/08/2026 11:58:38 | 33.8  | 31.9  | 34.9  | 34.7  | 60.5  | 232.6  | 0.04  | 4.5  | -85  | 11:58 |
| 16455 | 27/08/2026 11:53:54 | 33.7  | 31.8  | 35.0  | 34.4  | 60.7  | 232.9  | 0.03  | 4.5  | -83  | 11:53 |
| 16454 | 27/08/2026 11:49:12 | 33.6  | 31.7  | 34.8  | 34.3  | 60.4  | 232.2  | 0.04  | 4.5  | -84  | 11:49 |
| 16453 | 27/08/2026 11:44:24 | 33.5  | 31.6  | 35.0  | 34.3  | 60.7  | 231.7  | 0.04  | 4.6  | -85  | 11:44 |
| 16452 | 27/08/2026 11:39:28 | 33.4  | 31.6  | 34.6  | 34.0  | 60.8  | 229.4  | 0.04  | 4.5  | -84  | 11:39 |
| 16451 | 27/08/2026 11:34:30 | 33.3  | 31.5  | 34.7  | 34.1  | 60.8  | 232.4  | 0.04  | 4.5  | -85  | 11:34 |
| 16450 | 27/08/2026 11:29:45 | 33.2  | 31.4  | 34.3  | 34.1  | 60.5  | 230.5  | 0.04  | 4.5  | -83  | 11:29 |
| 16449 | 27/08/2026 11:25:01 | 33.1  | 31.4  | 34.3  | 33.8  | 60.6  | 231.8  | 0.04  | 4.5  | -83  | 11:25 |
| 16448 | 27/08/2026 11:20:19 | 33.1  | 31.3  | 34.1  | 34.0  | 60.7  | 232.8  | 0.04  | 4.6  | -84  | 11:20 |
| 16447 | 27/08/2026 11:15:29 | 33.1  | 31.3  | 33.5  | 33.8  | 60.5  | 232.5  | 0.04  | 4.6  | -83  | 11:15 |
| 16446 | 27/08/2026 11:10:46 | 33.1  | 31.2  | 33.8  | 33.8  | 60.6  | 232.6  | 0.04  | 4.5  | -84  | 11:10 |
| 16445 | 27/08/2026 11:06:01 | 32.9  | 31.2  | 33.5  | 33.9  | 60.6  | 231.7  | 0.04  | 4.5  | -83  | 11:06 |
| 16444 | 27/08/2026 11:01:17 | 32.8  | 31.1  | 33.9  | 33.7  | 60.6  | 233.2  | 0.04  | 4.6  | -83  | 11:01 |
| 16443 | 27/08/2026 10:56:34 | 32.8  | 31.1  | 33.5  | 33.6  | 60.9  | 232.1  | 0.04  | 4.5  | -83  | 10:56 |
| 16442 | 27/08/2026 10:51:50 | 32.6  | 30.9  | 33.8  | 33.4  | 60.9  | 232.3  | 0.04  | 4.5  | -83  | 10:51 |